Home > Products > Valid Products > MTR

000
SAGM31 PGUM 260955
MTRGUM
METAR PGUM 260954Z 08013G18KT 10SM FEW011 SCT019 BKN037 26/24 A2992
RMK AO2 RAB32E52 SLP123 P0001 T02610244




000
SAGM31 PGUM 260955
MTRGUM
METAR PGUM 260954Z 08013G18KT 10SM FEW011 SCT019 BKN037 26/24 A2992
RMK AO2 RAB32E52 SLP123 P0001 T02610244





000
SAGM31 PGUM 260855
MTRGUM
METAR PGUM 260854Z 06007KT 10SM FEW022 27/23 A2990 RMK AO2 SLP117
T02720233 53010





000
SAGM31 PGUM 260855
MTRGUM
METAR PGUM 260854Z 06007KT 10SM FEW022 27/23 A2990 RMK AO2 SLP117
T02720233 53010




000
SAGM31 PGUM 260754
MTRGUM
METAR PGUM 260754Z 06009KT 10SM FEW022 28/23 A2989 RMK AO2 SLP113
T02830233




000
SAGM31 PGUM 260654
MTRGUM
METAR PGUM 260654Z 06010KT 10SM FEW027 29/23 A2988 RMK AO2 SLP111
T02940228




000
SAGM31 PGUM 260654
MTRGUM
METAR PGUM 260654Z 06010KT 10SM FEW027 29/23 A2988 RMK AO2 SLP111
T02940228





000
SAGM31 PGUM 260554
MTRGUM
METAR PGUM 260554Z 08014KT 10SM FEW023 31/23 A2987 RMK AO2 RAE0459
SLP107 P0000 60003 T03060228 10306 20278 56012





000
SAGM31 PGUM 260554
MTRGUM
METAR PGUM 260554Z 08014KT 10SM FEW023 31/23 A2987 RMK AO2 RAE0459
SLP107 P0000 60003 T03060228 10306 20278 56012




000
SAGM31 PGUM 260455
MTRGUM
METAR PGUM 260454Z 07014G20KT 10SM -RA SCT025 SCT035 30/23 A2987 RMK
AO2 RAB0355E05B51 SLP108 P0000 T03000233




000
SAGM31 PGUM 260455
MTRGUM
METAR PGUM 260454Z 07014G20KT 10SM -RA SCT025 SCT035 30/23 A2987 RMK
AO2 RAB0355E05B51 SLP108 P0000 T03000233





000
SAGM31 PGUM 260355
MTRGUM
METAR PGUM 260354Z 08015G23KT 10SM SCT022 SCT043 29/23 A2989 RMK AO2
SLP113 T02940233




000
SAGM31 PGUM 260355
MTRGUM
METAR PGUM 260354Z 08015G23KT 10SM SCT022 SCT043 29/23 A2989 RMK AO2
SLP113 T02940233





000
SAGM31 PGUM 260345
MTRGUM
SPECI PGUM 260344Z 09014G19KT 10SM SCT022 BKN029 30/23 A2989 RMK AO2




000
SAGM31 PGUM 260345
MTRGUM
SPECI PGUM 260344Z 09014G19KT 10SM SCT022 BKN029 30/23 A2989 RMK AO2





000
SAGM31 PGUM 260316
MTRGUM
SPECI PGUM 260315Z 08012G19KT 10SM FEW017 29/24 A2990 RMK AO2




000
SAGM31 PGUM 260316
MTRGUM
SPECI PGUM 260315Z 08012G19KT 10SM FEW017 29/24 A2990 RMK AO2





000
SAGM31 PGUM 260254
MTRGUM
METAR PGUM 260254Z 08009G15KT 10SM SCT021 BKN029 BKN048 29/26 A2991
RMK AO2 RAB34E49 SLP120 P0001 60001 T02890261 58020





000
SAGM31 PGUM 260254
MTRGUM
METAR PGUM 260254Z 08009G15KT 10SM SCT021 BKN029 BKN048 29/26 A2991
RMK AO2 RAB34E49 SLP120 P0001 60001 T02890261 58020




000
SAGM31 PGUM 260154
MTRGUM
METAR PGUM 260154Z 07013KT 10SM SCT022 SCT027 31/23 A2993 RMK AO2
SLP127 T03060233




000
SAGM31 PGUM 260154
MTRGUM
METAR PGUM 260154Z 07013KT 10SM SCT022 SCT027 31/23 A2993 RMK AO2
SLP127 T03060233





000
SAGM31 PGUM 260154
MTRGUM
METAR PGUM 260154Z 07013KT 10SM SCT022 SCT027 31/23 A2993 RMK AO2
SLP127 T03060233




000
SAGM31 PGUM 260154
MTRGUM
METAR PGUM 260154Z 07013KT 10SM SCT022 SCT027 31/23 A2993 RMK AO2
SLP127 T03060233





000
SAGM31 PGUM 260147
MTRGUM
SPECI PGUM 260147Z 09011KT 10SM SCT022 SCT027 29/23 A2993 RMK AO2




000
SAGM31 PGUM 260147
MTRGUM
SPECI PGUM 260147Z 09011KT 10SM SCT022 SCT027 29/23 A2993 RMK AO2





000
SAGM31 PGUM 260147
MTRGUM
SPECI PGUM 260147Z 09011KT 10SM SCT022 SCT027 29/23 A2993 RMK AO2




000
SAGM31 PGUM 260147
MTRGUM
SPECI PGUM 260147Z 09011KT 10SM SCT022 SCT027 29/23 A2993 RMK AO2





000
SAGM31 PGUM 260118
MTRGUM
SPECI PGUM 260118Z 08012KT 10SM BKN022 31/23 A2995 RMK AO2




000
SAGM31 PGUM 260118
MTRGUM
SPECI PGUM 260118Z 08012KT 10SM BKN022 31/23 A2995 RMK AO2





000
SAGM31 PGUM 260054
MTRGUM
METAR PGUM 260054Z 07011KT 10SM SCT022 31/23 A2996 RMK AO2 SLP137
T03060233




000
SAGM31 PGUM 260054
MTRGUM
METAR PGUM 260054Z 07011KT 10SM SCT022 31/23 A2996 RMK AO2 SLP137
T03060233





000
SAGM31 PGUM 252354
MTRGUM
METAR PGUM 252354Z 08011KT 10SM SCT022 BKN030 29/23 A2997 RMK AO2
SLP139 T02940233 10294 20261 50006




000
SAGM31 PGUM 252354
MTRGUM
METAR PGUM 252354Z 08011KT 10SM SCT022 BKN030 29/23 A2997 RMK AO2
SLP139 T02940233 10294 20261 50006





000
SAGM31 PGUM 252254
MTRGUM
METAR PGUM 252254Z 08011KT 10SM FEW023 29/23 A2998 RMK AO2 SLP143
T02890228




000
SAGM31 PGUM 252254
MTRGUM
METAR PGUM 252254Z 08011KT 10SM FEW023 29/23 A2998 RMK AO2 SLP143
T02890228





000
SAGM31 PGUM 252155
MTRGUM
METAR PGUM 252154Z 07008KT 10SM FEW026 27/23 A2997 RMK AO2 SLP140
T02720228




000
SAGM31 PGUM 252155
MTRGUM
METAR PGUM 252154Z 07008KT 10SM FEW026 27/23 A2997 RMK AO2 SLP140
T02720228





000
SAGM31 PGUM 252055
MTRGUM
METAR PGUM 252054Z 07008KT 10SM FEW021 27/23 A2995 RMK AO2 SLP134
T02670228 53009




000
SAGM31 PGUM 252055
MTRGUM
METAR PGUM 252054Z 07008KT 10SM FEW021 27/23 A2995 RMK AO2 SLP134
T02670228 53009





000
SAGM31 PGUM 251955
MTRGUM
METAR PGUM 251954Z 09009KT 10SM FEW030 26/23 A2993 RMK AO2 SLP127
T02610228




000
SAGM31 PGUM 251955
MTRGUM
METAR PGUM 251954Z 09009KT 10SM FEW030 26/23 A2993 RMK AO2 SLP127
T02610228





000
SAGM31 PGUM 251854
MTRGUM
METAR PGUM 251854Z 07007KT 10SM FEW049 26/23 A2994 RMK AO2 SLP129
T02610228





000
SAGM31 PGUM 251854
MTRGUM
METAR PGUM 251854Z 07007KT 10SM FEW049 26/23 A2994 RMK AO2 SLP129
T02610228




000
SAGM31 PGUM 251754
MTRGUM
METAR PGUM 251754Z 08008KT 10SM FEW025 26/22 A2992 RMK AO2 SLP124
T02610222 10272 20261 57011





000
SAGM31 PGUM 251754
MTRGUM
METAR PGUM 251754Z 08008KT 10SM FEW025 26/22 A2992 RMK AO2 SLP124
T02610222 10272 20261 57011




000
SAGM31 PGUM 251655
MTRGUM
METAR PGUM 251654Z 08007KT 10SM FEW024 27/22 A2993 RMK AO2 SLP127
T02670222





000
SAGM31 PGUM 251655
MTRGUM
METAR PGUM 251654Z 08007KT 10SM FEW024 27/22 A2993 RMK AO2 SLP127
T02670222




000
SAGM31 PGUM 251555
MTRGUM
METAR PGUM 251554Z 08006KT 10SM FEW022 27/23 A2994 RMK AO2 SLP132
T02670228




000
SAGM31 PGUM 251555
MTRGUM
METAR PGUM 251554Z 08006KT 10SM FEW022 27/23 A2994 RMK AO2 SLP132
T02670228





000
SAGM31 PGUM 251455
MTRGUM
METAR PGUM 251454Z 08010KT 10SM FEW021 SCT042 27/23 A2995 RMK AO2
SLP135 T02670228 58008





000
SAGM31 PGUM 251455
MTRGUM
METAR PGUM 251454Z 08010KT 10SM FEW021 SCT042 27/23 A2995 RMK AO2
SLP135 T02670228 58008




000
SAGM31 PGUM 251354
MTRGUM
METAR PGUM 251354Z 09007KT 10SM FEW026 SCT034 27/23 A2996 RMK AO2
SLP139 T02670228 403110244




000
SAGM31 PGUM 251354
MTRGUM
METAR PGUM 251354Z 09007KT 10SM FEW026 SCT034 27/23 A2996 RMK AO2
SLP139 T02670228 403110244





000
SAGM31 PGUM 251254
MTRGUM
METAR PGUM 251254Z 09007KT 10SM SCT021 SCT029 BKN037 27/23 A2997 RMK
AO2 SLP140 T02720228




000
SAGM31 PGUM 251254
MTRGUM
METAR PGUM 251254Z 09007KT 10SM SCT021 SCT029 BKN037 27/23 A2997 RMK
AO2 SLP140 T02720228





000
SAGM31 PGUM 251154
MTRGUM
METAR PGUM 251154Z 08008KT 10SM FEW020 27/23 A2998 RMK AO2 SLP143
70020 T02720228 10300 20272 51007




000
SAGM31 PGUM 251154
MTRGUM
METAR PGUM 251154Z 08008KT 10SM FEW020 27/23 A2998 RMK AO2 SLP143
70020 T02720228 10300 20272 51007





000
SAGM31 PGUM 251055
MTRGUM
METAR PGUM 251054Z 08010KT 10SM FEW023 27/23 A2997 RMK AO2 SLP142
T02720233




000
SAGM31 PGUM 251055
MTRGUM
METAR PGUM 251054Z 08010KT 10SM FEW023 27/23 A2997 RMK AO2 SLP142
T02720233





000
SAGM31 PGUM 250955
MTRGUM
METAR PGUM 250954Z 07007KT 10SM FEW023 27/23 A2996 RMK AO2 SLP138
T02720228




000
SAGM31 PGUM 250955
MTRGUM
METAR PGUM 250954Z 07007KT 10SM FEW023 27/23 A2996 RMK AO2 SLP138
T02720228





000
SAGM31 PGUM 250855
MTRGUM
METAR PGUM 250854Z 06008KT 10SM FEW023 28/23 A2996 RMK AO2 SLP136
T02780233 51010





000
SAGM31 PGUM 250855
MTRGUM
METAR PGUM 250854Z 06008KT 10SM FEW023 28/23 A2996 RMK AO2 SLP136
T02780233 51010




000
SAGM31 PGUM 250754
MTRGUM
METAR PGUM 250754Z 06009KT 10SM FEW023 28/23 A2995 RMK AO2 SLP134
T02830233




000
SAGM31 PGUM 250754
MTRGUM
METAR PGUM 250754Z 06009KT 10SM FEW023 28/23 A2995 RMK AO2 SLP134
T02830233





000
SAGM31 PGUM 250654
MTRGUM
METAR PGUM 250654Z 07013KT 10SM FEW023 29/23 A2994 RMK AO2 SLP130
T02940233





000
SAGM31 PGUM 250654
MTRGUM
METAR PGUM 250654Z 07013KT 10SM FEW023 29/23 A2994 RMK AO2 SLP130
T02940233




000
SAGM31 PGUM 250637
MTRGUM
SPECI PGUM 250636Z 08011KT 10SM FEW023 SCT029 29/23 A2994 RMK AO2




000
SAGM31 PGUM 250637
MTRGUM
SPECI PGUM 250636Z 08011KT 10SM FEW023 SCT029 29/23 A2994 RMK AO2





000
SAGM31 PGUM 250630
MTRGUM
SPECI PGUM 250629Z 07012G18KT 10SM SCT023 BKN029 30/23 A2994 RMK AO2




000
SAGM31 PGUM 250554
MTRGUM
METAR PGUM 250554Z 09014KT 10SM FEW025 SCT030 30/23 A2993 RMK AO2
SLP126 T03000228 10311 20289 55010





000
SAGM31 PGUM 250455
MTRGUM
METAR PGUM 250454Z 07012KT 10SM SCT025 SCT034 31/23 A2992 RMK AO2
SLP125 T03110233





000
SAGM31 PGUM 250455
MTRGUM
METAR PGUM 250454Z 07012KT 10SM SCT025 SCT034 31/23 A2992 RMK AO2
SLP125 T03110233




000
SAGM31 PGUM 250355
MTRGUM
METAR PGUM 250354Z 07010KT 10SM SCT027 SCT038 31/23 A2994 RMK AO2
SLP130 T03110228




000
SAGM31 PGUM 250355
MTRGUM
METAR PGUM 250354Z 07010KT 10SM SCT027 SCT038 31/23 A2994 RMK AO2
SLP130 T03110228





000
SAGM31 PGUM 250254
MTRGUM
METAR PGUM 250254Z 07010KT 10SM SCT025 BKN036 31/23 A2996 RMK AO2
SLP136 T03110228 58019




000
SAGM31 PGUM 250254
MTRGUM
METAR PGUM 250254Z 07010KT 10SM SCT025 BKN036 31/23 A2996 RMK AO2
SLP136 T03110228 58019





000
SAGM31 PGUM 250154
MTRGUM
METAR PGUM 250154Z 05013G20KT 10SM FEW025 SCT034 SCT045 31/23 A2998
RMK AO2 SLP143 T03110228




000
SAGM31 PGUM 250154
MTRGUM
METAR PGUM 250154Z 05013G20KT 10SM FEW025 SCT034 SCT045 31/23 A2998
RMK AO2 SLP143 T03110228





000
SAGM31 PGUM 250154
MTRGUM
METAR PGUM 250154Z 05013G20KT 10SM FEW025 SCT034 SCT045 31/23 A2998
RMK AO2 SLP143 T03110228




000
SAGM31 PGUM 250154
MTRGUM
METAR PGUM 250154Z 05013G20KT 10SM FEW025 SCT034 SCT045 31/23 A2998
RMK AO2 SLP143 T03110228





000
SAGM31 PGUM 250054
MTRGUM
METAR PGUM 250054Z 07016KT 10SM SCT029 29/23 A3000 RMK AO2 SLP151
T02940233




000
SAGM31 PGUM 250054
MTRGUM
METAR PGUM 250054Z 07016KT 10SM SCT029 29/23 A3000 RMK AO2 SLP151
T02940233





000
SAGM31 PGUM 242354
MTRGUM
METAR PGUM 242354Z 08013KT 10SM FEW021 29/24 A3001 RMK AO2 SLP155
60019 T02890244 10289 20256 51013




000
SAGM31 PGUM 242354
MTRGUM
METAR PGUM 242354Z 08013KT 10SM FEW021 29/24 A3001 RMK AO2 SLP155
60019 T02890244 10289 20256 51013





000
SAGM31 PGUM 242254
MTRGUM
METAR PGUM 242254Z 06011KT 10SM FEW017 SCT024 29/25 A3001 RMK AO2
SLP155 T02890250





000
SAGM31 PGUM 242254
MTRGUM
METAR PGUM 242254Z 06011KT 10SM FEW017 SCT024 29/25 A3001 RMK AO2
SLP155 T02890250




000
SAGM31 PGUM 242155
MTRGUM
METAR PGUM 242154Z 07007KT 10SM CLR 27/24 A2999 RMK AO2 RAE2056
SLP149 P0000 T02670244





000
SAGM31 PGUM 242155
MTRGUM
METAR PGUM 242154Z 07007KT 10SM CLR 27/24 A2999 RMK AO2 RAE2056
SLP149 P0000 T02670244




000
SAGM31 PGUM 242055
MTRGUM
METAR PGUM 242054Z 08007KT 10SM -RA FEW018 BKN040 OVC090 26/24 A2998
RMK AO2 RAB29 SLP143 P0011 60011 T02560239 53010





000
SAGM31 PGUM 242008
MTRGUM
SPECI PGUM 242007Z 08008KT 10SM FEW016 27/24 A2996 RMK AO2




000
SAGM31 PGUM 242008
MTRGUM
SPECI PGUM 242007Z 08008KT 10SM FEW016 27/24 A2996 RMK AO2





000
SAGM31 PGUM 241955
MTRGUM
METAR PGUM 241954Z 08005KT 10SM SCT016 BKN024 BKN032 27/24 A2996 RMK
AO2 SLP136 T02670244




000
SAGM31 PGUM 241955
MTRGUM
METAR PGUM 241954Z 08005KT 10SM SCT016 BKN024 BKN032 27/24 A2996 RMK
AO2 SLP136 T02670244





000
SAGM31 PGUM 241937
MTRGUM
SPECI PGUM 241937Z 07007KT 10SM SCT019 27/24 A2995 RMK AO2





000
SAGM31 PGUM 241937
MTRGUM
SPECI PGUM 241937Z 07007KT 10SM SCT019 27/24 A2995 RMK AO2




000
SAGM31 PGUM 241901
MTRGUM
SPECI PGUM 241901Z 08005KT 10SM SCT019 BKN025 BKN029 27/24 A2995 RMK
AO2





000
SAGM31 PGUM 241901
MTRGUM
SPECI PGUM 241901Z 08005KT 10SM SCT019 BKN025 BKN029 27/24 A2995 RMK
AO2




000
SAGM31 PGUM 241854
MTRGUM
METAR PGUM 241854Z 08005KT 10SM SCT019 BKN075 27/24 A2995 RMK AO2
SLP132 T02670239





000
SAGM31 PGUM 241854
MTRGUM
METAR PGUM 241854Z 08005KT 10SM SCT019 BKN075 27/24 A2995 RMK AO2
SLP132 T02670239




000
SAGM31 PGUM 241754
MTRGUM
METAR PGUM 241754Z 09007KT 10SM FEW020 OVC075 27/24 A2994 RMK AO2
SLP132 60000 T02670239 10267 20244 56011




000
SAGM31 PGUM 241754
MTRGUM
METAR PGUM 241754Z 09007KT 10SM FEW020 OVC075 27/24 A2994 RMK AO2
SLP132 60000 T02670239 10267 20244 56011





000
SAGM31 PGUM 241655
MTRGUM
METAR PGUM 241654Z 08009KT 10SM OVC070 27/24 A2995 RMK AO2 SLP134
T02670244




000
SAGM31 PGUM 241655
MTRGUM
METAR PGUM 241654Z 08009KT 10SM OVC070 27/24 A2995 RMK AO2 SLP134
T02670244





000
SAGM31 PGUM 241555
MTRGUM
METAR PGUM 241554Z 07010KT 10SM CLR 26/23 A2996 RMK AO2 SLP137
T02610233




000
SAGM31 PGUM 241555
MTRGUM
METAR PGUM 241554Z 07010KT 10SM CLR 26/23 A2996 RMK AO2 SLP137
T02610233





000
SAGM31 PGUM 241455
MTRGUM
METAR PGUM 241454Z 08010KT 10SM CLR 26/23 A2998 RMK AO2 SLP143 60000
T02560228 58012





000
SAGM31 PGUM 241455
MTRGUM
METAR PGUM 241454Z 08010KT 10SM CLR 26/23 A2998 RMK AO2 SLP143 60000
T02560228 58012




000
SAGM31 PGUM 241401
MTRGUM
METAR PGUM 241354Z COR 07011G18KT 10SM BKN050 BKN055 26/23 A3000 RMK
AO2 RAB14E24 SLP150 P0001 T02560233 403110250




000
SAGM31 PGUM 241401
MTRGUM
METAR PGUM 241354Z COR 07011G18KT 10SM BKN050 BKN055 26/23 A3000 RMK
AO2 RAB14E24 SLP150 P0001 T02560233 403110250





000
SAGM31 PGUM 241354
MTRGUM
METAR PGUM 241354Z 07011G18KT 10SM BKN050 BKN055 26/23 A3000 RMK AO2
RAB14E24 SLP150 P0000 T02560233 403110250




000
SAGM31 PGUM 241354
MTRGUM
METAR PGUM 241354Z 07011G18KT 10SM BKN050 BKN055 26/23 A3000 RMK AO2
RAB14E24 SLP150 P0000 T02560233 403110250





000
SAGM31 PGUM 241254
MTRGUM
METAR PGUM 241254Z 06012KT 10SM FEW019 SCT050 25/23 A3001 RMK AO2
RAB1158E19 SLP153 P0000 T02500233





000
SAGM31 PGUM 241254
MTRGUM
METAR PGUM 241254Z 06012KT 10SM FEW019 SCT050 25/23 A3001 RMK AO2
RAB1158E19 SLP153 P0000 T02500233




000
SAGM31 PGUM 241229
MTRGUM
SPECI PGUM 241228Z 05014KT 10SM FEW009 BKN042 BKN050 25/23 A3000 RMK
AO2 RAB1158E19 P0000




000
SAGM31 PGUM 241229
MTRGUM
SPECI PGUM 241228Z 05014KT 10SM FEW009 BKN042 BKN050 25/23 A3000 RMK
AO2 RAB1158E19 P0000





000
SAGM31 PGUM 241154
MTRGUM
METAR PGUM 241154Z 06012KT 10SM FEW018 SCT050 BKN090 26/24 A3001 RMK
AO2 RAE00B50E52 SLP155 60003 70088 T02560239 10294 20250 51014




000
SAGM31 PGUM 241154
MTRGUM
METAR PGUM 241154Z 06012KT 10SM FEW018 SCT050 BKN090 26/24 A3001 RMK
AO2 RAE00B50E52 SLP155 60003 70088 T02560239 10294 20250 51014





000
SAGM31 PGUM 241055
MTRGUM
METAR PGUM 241054Z 07011G20KT 10SM -RA FEW049 SCT070 OVC095 25/24
A3001 RMK AO2 RAB13 SLP155 P0001 T02500239





000
SAGM31 PGUM 241055
MTRGUM
METAR PGUM 241054Z 07011G20KT 10SM -RA FEW049 SCT070 OVC095 25/24
A3001 RMK AO2 RAB13 SLP155 P0001 T02500239




000
SAGM31 PGUM 241024
MTRGUM
SPECI PGUM 241023Z 07015G20KT 5SM -RA BR SCT011 BKN035 BKN044 26/24
A3001 RMK AO2 RAB13 P0001




000
SAGM31 PGUM 241024
MTRGUM
SPECI PGUM 241023Z 07015G20KT 5SM -RA BR SCT011 BKN035 BKN044 26/24
A3001 RMK AO2 RAB13 P0001





000
SAGM31 PGUM 240956
MTRGUM
METAR PGUM 240954Z COR 05008KT 10SM FEW023 SCT050 27/23 A2999 RMK
AO2 SLP148  T02720233




000
SAGM31 PGUM 240956
MTRGUM
METAR PGUM 240954Z COR 05008KT 10SM FEW023 SCT050 27/23 A2999 RMK
AO2 SLP148  T02720233





000
SAGM31 PGUM 240956
MTRGUM
METAR PGUM 240954Z COR 05008KT 10SM FEW023 SCT050 27/23 A2999 RMK
AO2 SLP148  T02720233




000
SAGM31 PGUM 240955
MTRGUM
METAR PGUM 240954Z 05008KT 10SM FEW023 SCT050 27/23 A2999 RMK AO2
SLP148 CB DSNT E-SE MOV W T02720233





000
SAGM31 PGUM 240955
MTRGUM
METAR PGUM 240954Z 05008KT 10SM FEW023 SCT050 27/23 A2999 RMK AO2
SLP148 CB DSNT E-SE MOV W T02720233





000
SAGM31 PGUM 240955
MTRGUM
METAR PGUM 240954Z 05008KT 10SM FEW023 SCT050 27/23 A2999 RMK AO2
SLP148 CB DSNT E-SE MOV W T02720233




000
SAGM31 PGUM 240855
MTRGUM
METAR PGUM 240854Z 05007KT 10SM FEW018 SCT040 27/23 A2997 RMK AO2
SLPNO CB DSNT E-SE MOV W T02720233 51016




000
SAGM31 PGUM 240855
MTRGUM
METAR PGUM 240854Z 05007KT 10SM FEW018 SCT040 27/23 A2997 RMK AO2
SLPNO CB DSNT E-SE MOV W T02720233 51016





000
SAGM31 PGUM 240754
MTRGUM
METAR PGUM 240754Z 05008KT 10SM FEW018 SCT043 28/24 A2996 RMK AO2
SLP137 T02830239




000
SAGM31 PGUM 240754
MTRGUM
METAR PGUM 240754Z 05008KT 10SM FEW018 SCT043 28/24 A2996 RMK AO2
SLP137 T02830239





000
SAGM31 PGUM 240654
MTRGUM
METAR PGUM 240654Z 06013KT 10SM FEW022 SCT050 29/23 A2995 RMK AO2
SLP132 T02890233




000
SAGM31 PGUM 240654
MTRGUM
METAR PGUM 240654Z 06013KT 10SM FEW022 SCT050 29/23 A2995 RMK AO2
SLP132 T02890233





000
SAGM31 PGUM 240555
MTRGUM
METAR PGUM 240554Z 07013KT 10SM FEW021 SCT027 BKN042 29/23 A2993 RMK
AO2 SLP126 60000 T02940233 10311 20283 55006




000
SAGM31 PGUM 240555
MTRGUM
METAR PGUM 240554Z 07013KT 10SM FEW021 SCT027 BKN042 29/23 A2993 RMK
AO2 SLP126 60000 T02940233 10311 20283 55006





000
SAGM31 PGUM 240455
MTRGUM
METAR PGUM 240454Z 06015KT 10SM FEW024 SCT036 31/23 A2992 RMK AO2
RAB11E20 SLP124 P0000 T03060233





000
SAGM31 PGUM 240455
MTRGUM
METAR PGUM 240454Z 06015KT 10SM FEW024 SCT036 31/23 A2992 RMK AO2
RAB11E20 SLP124 P0000 T03060233




000
SAGM31 PGUM 240355
MTRGUM
METAR PGUM 240354Z 07014KT 10SM FEW021 SCT040 31/24 A2993 RMK AO2
SLP126 T03060239




000
SAGM31 PGUM 240355
MTRGUM
METAR PGUM 240354Z 07014KT 10SM FEW021 SCT040 31/24 A2993 RMK AO2
SLP126 T03060239





000
SAGM31 PGUM 240254
MTRGUM
METAR PGUM 240254Z 11012G18KT 10SM FEW023 SCT038 30/23 A2994 RMK AO2
SLP132 60001 T02980233 58017 $




000
SAGM31 PGUM 240254
MTRGUM
METAR PGUM 240254Z 11012G18KT 10SM FEW023 SCT038 30/23 A2994 RMK AO2
SLP132 60001 T02980233 58017 $





000
SAGM31 PGUM 240215
MTRGUM
SPECI PGUM 240215Z 10010KT 10SM SCT024 30/23 A2996 RMK AO2 $




000
SAGM31 PGUM 240215
MTRGUM
SPECI PGUM 240215Z 10010KT 10SM SCT024 30/23 A2996 RMK AO2 $





000
SAGM31 PGUM 240201
MTRGUM
SPECI PGUM 240201Z 10010KT 10SM SCT024 BKN028 BKN036 30/23 A2996 RMK
AO2 $




000
SAGM31 PGUM 240201
MTRGUM
SPECI PGUM 240201Z 10010KT 10SM SCT024 BKN028 BKN036 30/23 A2996 RMK
AO2 $





000
SAGM31 PGUM 240154
MTRGUM
METAR PGUM 240154Z 08009KT 10SM SCT026 BKN036 BKN044 29/25 A2997 RMK
AO2 SLP139 P0001 T02940250 $




000
SAGM31 PGUM 240154
MTRGUM
METAR PGUM 240154Z 08009KT 10SM SCT026 BKN036 BKN044 29/25 A2997 RMK
AO2 SLP139 P0001 T02940250 $





000
SAGM31 PGUM 240054
MTRGUM
METAR PGUM 240054Z 09008KT 10SM FEW023 SCT049 BKN060 28/23 A2998 RMK
AO2 RAB37E48 SLP145 P0000 T02820233 $




000
SAGM31 PGUM 240054
MTRGUM
METAR PGUM 240054Z 09008KT 10SM FEW023 SCT049 BKN060 28/23 A2998 RMK
AO2 RAB37E48 SLP145 P0000 T02820233 $





000
SAGM31 PGUM 232355
MTRGUM
METAR PGUM 232354Z 09009KT 10SM CLR 28/25 A2999 RMK AO2 SLP149 60004
T02770250 51023 $





000
SAGM31 PGUM 232355
MTRGUM
METAR PGUM 232354Z 09009KT 10SM CLR 28/25 A2999 RMK AO2 SLP149 60004
T02770250 51023 $




000
SAGM31 PGUM 232255
MTRGUM
METAR PGUM 232254Z 09006KT 10SM FEW021 27/25 A2999 RMK AO2 SLP147
T02650250 $




000
SAGM31 PGUM 232255
MTRGUM
METAR PGUM 232254Z 09006KT 10SM FEW021 27/25 A2999 RMK AO2 SLP147
T02650250 $





000
SAGM31 PGUM 232154
MTRGUM
METAR PGUM 232154Z 07006KT 10SM FEW010 SCT016 BKN037 26/24 A2996 RMK
AO2 SLP139 T02600244 $




000
SAGM31 PGUM 232154
MTRGUM
METAR PGUM 232154Z 07006KT 10SM FEW010 SCT016 BKN037 26/24 A2996 RMK
AO2 SLP139 T02600244 $





000
SAGM31 PGUM 232154
MTRGUM
METAR PGUM 232154Z 07006KT 10SM FEW010 SCT016 BKN037 26/24 A2996 RMK
AO2 SLP139 T02600244 $





000
SAGM31 PGUM 232055
MTRGUM
METAR PGUM 232054Z 10SM BKN017 BKN024 A2992 RMK AO2 SLPNO 60004
53006 $




000
SAGM31 PGUM 232055
MTRGUM
METAR PGUM 232054Z 10SM BKN017 BKN024 A2992 RMK AO2 SLPNO 60004
53006 $





000
SAGM31 PGUM 232033
MTRGUM
SPECI PGUM 232033Z 10SM SCT018 BKN024 A2992 RMK AO2 $




000
SAGM31 PGUM 232033
MTRGUM
SPECI PGUM 232033Z 10SM SCT018 BKN024 A2992 RMK AO2 $





000
SAGM31 PGUM 231955
MTRGUM
METAR PGUM 231954Z 08009KT 10SM FEW020 25/24 A2992 RMK AO2
RAB1857E16 SLP124 P0004 T02520244 $




000
SAGM31 PGUM 231955
MTRGUM
METAR PGUM 231954Z 08009KT 10SM FEW020 25/24 A2992 RMK AO2
RAB1857E16 SLP124 P0004 T02520244 $





000
SAGM31 PGUM 231855
MTRGUM
METAR PGUM 231854Z 07007KT 10SM FEW026 BKN070 25/24 A2991 RMK AO2
SLP122 T02500239 $




000
SAGM31 PGUM 231855
MTRGUM
METAR PGUM 231854Z 07007KT 10SM FEW026 BKN070 25/24 A2991 RMK AO2
SLP122 T02500239 $





000
SAGM31 PGUM 231755
MTRGUM
METAR PGUM 231754Z 13004KT 10SM FEW020 SCT065 BKN080 25/24 A2991 RMK
AO2 RAE53 SLP121 P0003 60076 T02500240 10267 20250 58006 $





000
SAGM31 PGUM 231722
MTRGUM
METAR PGUM 231654Z COR 07008KT 10SM -RA FEW013 OVC020 25/24 A2992
RMK AO2 SLP123 P0070 T02500244 $




000
SAGM31 PGUM 231722
MTRGUM
METAR PGUM 231654Z COR 07008KT 10SM -RA FEW013 OVC020 25/24 A2992
RMK AO2 SLP123 P0070 T02500244 $





000
SAGM31 PGUM 231721
MTRGUM
SPECI PGUM 231721Z 13007KT 10SM -RA SCT017 BKN048 OVC080 25/24 A2991
RMK AO2 P0003 $





000
SAGM31 PGUM 231721
MTRGUM
SPECI PGUM 231721Z 13007KT 10SM -RA SCT017 BKN048 OVC080 25/24 A2991
RMK AO2 P0003 $




000
SAGM31 PGUM 231713
MTRGUM
METAR PGUM 231654Z COR 07008KT 10SM -+RA BR FEW013 OVC020 25/24
A2992 RMK AO2 SLP123 P0070 T02500244 $




000
SAGM31 PGUM 231713
MTRGUM
METAR PGUM 231654Z COR 07008KT 10SM -+RA BR FEW013 OVC020 25/24
A2992 RMK AO2 SLP123 P0070 T02500244 $





000
SAGM31 PGUM 231655
MTRGUM
METAR PGUM 231654Z 07008KT 4SM +RA BR FEW013 OVC020 25/24 A2992 RMK
AO2 SLP123 P0070 T02500244 $




000
SAGM31 PGUM 231655
MTRGUM
METAR PGUM 231654Z 07008KT 4SM +RA BR FEW013 OVC020 25/24 A2992 RMK
AO2 SLP123 P0070 T02500244 $





000
SAGM31 PGUM 231655
MTRGUM
METAR PGUM 231654Z 07008KT 4SM +RA BR FEW013 OVC020 25/24 A2992 RMK
AO2 SLP123 P0070 T02500244 $




000
SAGM31 PGUM 231636
MTRGUM
SPECI PGUM 231636Z 07008KT 4SM +RA BR OVC027 25/24 A2992 RMK AO2
P0049 $





000
SAGM31 PGUM 231554
MTRGUM
METAR PGUM 231554Z 08010KT 5SM RA BR SCT028 SCT040 OVC047 25/24
A2992 RMK AO2 SLP124 P0003 T02500244 $





000
SAGM31 PGUM 231554
MTRGUM
METAR PGUM 231554Z 08010KT 5SM RA BR SCT028 SCT040 OVC047 25/24
A2992 RMK AO2 SLP124 P0003 T02500244 $




000
SAGM31 PGUM 231455
MTRGUM
METAR PGUM 231454Z 06008KT 7SM RA FEW010 BKN032 OVC048 25/24 A2993
RMK AO2 RAE06B51 SLP128 P0000 60000 T02500240 56007 $





000
SAGM31 PGUM 231455
MTRGUM
METAR PGUM 231454Z 06008KT 7SM RA FEW010 BKN032 OVC048 25/24 A2993
RMK AO2 RAE06B51 SLP128 P0000 60000 T02500240 56007 $




000
SAGM31 PGUM 231355
MTRGUM
METAR PGUM 231354Z 05003KT 10SM -RA FEW060 BKN080 BKN100 26/25 A2994
RMK AO2 RAB52 SLP130 P0000 T02580250 $




000
SAGM31 PGUM 231355
MTRGUM
METAR PGUM 231354Z 05003KT 10SM -RA FEW060 BKN080 BKN100 26/25 A2994
RMK AO2 RAB52 SLP130 P0000 T02580250 $





000
SAGM31 PGUM 231255
MTRGUM
METAR PGUM 231254Z 04003KT 10SM FEW016 BKN080 BKN100 26/24 A2994 RMK
AO2 RAB18E45 SLP132 P0000 T02620244 $




000
SAGM31 PGUM 231255
MTRGUM
METAR PGUM 231254Z 04003KT 10SM FEW016 BKN080 BKN100 26/24 A2994 RMK
AO2 RAB18E45 SLP132 P0000 T02620244 $





000
SAGM31 PGUM 231155
MTRGUM
METAR PGUM 231154Z 01005KT 10SM SCT065 BKN095 27/24 A2995 RMK AO2
SLP135 T02660244 10278 20267 53011 $




000
SAGM31 PGUM 231155
MTRGUM
METAR PGUM 231154Z 01005KT 10SM SCT065 BKN095 27/24 A2995 RMK AO2
SLP135 T02660244 10278 20267 53011 $





000
SAGM31 PGUM 231054
MTRGUM
METAR PGUM 231054Z 01006KT 10SM FEW013 SCT080 BKN100 27/24 A2994 RMK
AO2 SLP130 T02670244 $




000
SAGM31 PGUM 231054
MTRGUM
METAR PGUM 231054Z 01006KT 10SM FEW013 SCT080 BKN100 27/24 A2994 RMK
AO2 SLP130 T02670244 $





    US Dept of Commerce
    National Oceanic and Atmospheric Administration
    National Weather Service
    1325 East West Highway
    Silver Spring, MD 20910
    Page Author: NWS Internet Services Team
Disclaimer
Information Quality
Credits
Glossary
Privacy Policy
Freedom of Information Act (FOIA)
About Us
Career Opportunities